This is the latest recevied weather packets stored in our database for station/object S51UL-6. If no packets are shown the sender has not sent any weather packets the latest 10 day(s).
| Time | Temp. | Humidity | Pressure | Rain* | Wind** | Luminosity | Snow |
|---|---|---|---|---|---|---|---|
| 1787742793 | 33.89° C | 49% | 1018 hPa | 0 mm | - | - | - |
| 1787742494 | 33.89° C | 50% | 1018.2 hPa | 0 mm | - | - | - |
| 1787742195 | 33.33° C | 52% | 1018.3 hPa | 0 mm | - | - | - |
| 1787741893 | 32.22° C | 54% | 1018.4 hPa | 0 mm | - | - | - |
| 1787741594 | 31.67° C | 53% | 1018.6 hPa | 0 mm | - | - | - |
| 1787740993 | 30.56° C | 56% | 1018.4 hPa | 0 mm | - | - | - |
| 1787740393 | 29.44° C | 56% | 1018.5 hPa | 0 mm | - | - | - |
| 1787739793 | 28.89° C | 57% | 1018.6 hPa | 0 mm | - | - | - |
| 1787739493 | 28.33° C | 58% | 1018.8 hPa | 0 mm | - | - | - |
| 1787739194 | 28.33° C | 58% | 1018.7 hPa | 0 mm | - | - | - |
| 1787738594 | 27.78° C | 60% | 1018.7 hPa | 0 mm | - | - | - |
| 1787738293 | 27.78° C | 60% | 1018.6 hPa | 0 mm | - | - | - |
| 1787737994 | 27.78° C | 61% | 1018.6 hPa | 0 mm | - | - | - |
| 1787737695 | 27.78° C | 60% | 1018.7 hPa | 0 mm | - | - | - |
| 1787737512 | 27.78° C | 61% | 1018.8 hPa | 0 mm | - | - | - |
| 1787737394 | 27.78° C | 61% | 1018.8 hPa | 0 mm | - | - | - |
| 1787737094 | 27.78° C | 62% | 1018.9 hPa | 0 mm | - | - | - |
| 1787736794 | 27.22° C | 62% | 1018.9 hPa | 0 mm | - | - | - |
| 1787736494 | 27.22° C | 60% | 1018.9 hPa | 0 mm | - | - | - |
| 1787736194 | 27.78° C | 61% | 1019 hPa | 0 mm | - | - | - |
| 1787735594 | 27.22° C | 63% | 1019.1 hPa | 0 mm | - | - | - |
| 1787735294 | 27.22° C | 64% | 1019 hPa | 0 mm | - | - | - |
| 1787734994 | 26.67° C | 65% | 1019 hPa | 0 mm | - | - | - |
| 1787734696 | 26.67° C | 65% | 1018.9 hPa | 0 mm | - | - | - |
| 1787734394 | 26.67° C | 64% | 1019.1 hPa | 0 mm | - | - | - |
* Rain latest hour (hover to see other rain measurements)
** Current wind speed in m/s (hover to see current wind gust speed)